This is the latest recevied weather packets stored in our database for station/object KF0JHJ. If no packets are shown the sender has not sent any weather packets the latest 10 day(s).
| Time | Temp. | Humidity | Pressure | Rain* | Wind** | Luminosity | Snow |
|---|---|---|---|---|---|---|---|
| 1778164245 | 9.44° C | 43% | 1010.8 hPa | - | - | 46 W/m² | - |
| 1778163944 | 9.44° C | 44% | 1010.6 hPa | - | - | 45 W/m² | - |
| 1778163642 | 8.89° C | 46% | 1010.6 hPa | - | - | 45 W/m² | - |
| 1778163338 | 8.89° C | 43% | 1010.5 hPa | - | - | 84 W/m² | - |
| 1778163035 | 9.44° C | 44% | 1010.5 hPa | - | - | 61 W/m² | - |
| 1778162732 | 8.89° C | 49% | 1010.6 hPa | - | - | 141 W/m² | - |
| 1778162429 | 8.33° C | 50% | 1010.7 hPa | - | - | 290 W/m² | - |
| 1778162126 | 8.89° C | 50% | 1010.4 hPa | - | - | 174 W/m² | - |
| 1778161823 | 8.33° C | 51% | 1010.4 hPa | - | - | 180 W/m² | - |
| 1778161520 | 8.89° C | 50% | 1010.8 hPa | - | - | 196 W/m² | - |
| 1778161215 | 9.44° C | 53% | 1010.7 hPa | - | - | 223 W/m² | - |
| 1778160912 | 7.78° C | 56% | 1010.7 hPa | - | - | 146 W/m² | - |
| 1778160610 | 7.22° C | 62% | 1010.5 hPa | - | - | 146 W/m² | - |
| 1778160306 | 6.11° C | 63% | 1010.5 hPa | - | - | 110 W/m² | - |
| 1778160003 | 6.11° C | 68% | 1010.6 hPa | - | - | 95 W/m² | - |
| 1778159700 | 5° C | 75% | 1010.7 hPa | - | - | 92 W/m² | - |
| 1778159396 | 5° C | 75% | 1010.6 hPa | - | - | 33 W/m² | - |
| 1778159094 | 4.44° C | 71% | 1010.7 hPa | - | - | 32 W/m² | - |
| 1778158792 | 3.89° C | 73% | 1010.5 hPa | - | - | 29 W/m² | - |
| 1778158490 | 2.78° C | 82% | 1010.5 hPa | - | - | 27 W/m² | - |
| 1778158187 | 2.22° C | 87% | 1010.7 hPa | - | - | 27 W/m² | - |
| 1778157883 | 1.67° C | 88% | 1011 hPa | - | - | 26 W/m² | - |
| 1778157582 | 1.67° C | 89% | 1010.8 hPa | - | - | 26 W/m² | - |
| 1778157279 | 1.11° C | 90% | 1010.7 hPa | - | - | 23 W/m² | - |
| 1778156975 | 0.56° C | 89% | 1010.8 hPa | - | - | 23 W/m² | - |
* Rain since midnight (hover to see other rain measurements)
** Current wind speed in m/s (hover to see current wind gust speed)